#timestamp,LO_Frequency,Hit,StdDev 
1549278015.7,286047000.5,N
1549278035.5,286047001.0,N
1549278055.4,286046999.9,N
1549278075.2,286047001.0,N
1549278095.0,286047001.1,N
1549278095.9,286047001.1,N
1549278115.8,286047000.8,N
1549278135.6,286047000.9,N
1549278155.5,286047001.0,N
1549278175.3,286047000.9,N
1549278195.1,286046999.8,N
1549278215.9,286047000.5,N
1549278235.7,286046998.5,N
1549278255.5,286046998.8,N
1549278275.4,286046998.6,N
1549278295.2,286046998.7,N
1549278315.1,286046998.2,N
1549278316.0,286046998.2,N
1549278335.8,286046999.0,N
1549278355.6,286046999.0,N
1549278375.5,286046998.6,N
1549278395.3,286046998.7,N
1549278415.1,286046998.6,N
1549278435.9,286046998.3,N
1549278455.7,286047000.7,N
1549278475.6,286047001.0,N
1549278495.4,286047000.8,N
1549278515.2,286047002.1,N
1549278535.1,286047002.1,N
1549278536.0,286047002.1,N
1549278555.8,286047001.6,N
1549278575.6,286047002.6,N
1549278595.5,286047002.5,N
1549278615.3,286047002.6,N
1549278635.2,286047003.9,N
1549278655.9,286047003.6,N
1549278675.7,286047004.1,N
1549278695.6,286047003.9,N
1549278715.4,286047003.7,N
1549278735.2,286047003.2,N
1549278755.1,286047004.1,N
1549278756.0,286047004.1,N
1549278775.8,286047003.2,N
1549278795.7,286047003.0,N
1549278815.5,286047003.2,N
1549278835.3,286047003.8,N
1549278855.2,286047004.0,N
1549278875.0,286047003.7,N
1549278875.9,286047003.7,N
1549278895.8,286047003.7,N
1549278915.6,286047003.4,N
1549278935.4,286047003.6,N
1549278955.3,286047004.1,N
1549278975.1,286047004.4,Y
1549278995.9,286046998.3,P
1549279015.7,286046999.1,N
1549279035.5,286046997.2,N
1549279055.4,286046996.5,N
1549279075.2,286046998.9,N
1549279095.0,286046999.6,N
1549279095.9,286046999.6,N
1549279145.8,286046997.8,E
1549279155.7,286046999.5,N
1549279175.6,286046998.5,P
1549279195.4,286046998.3,P
1549279215.2,286047001.0,N
1549279235.1,286046998.5,N
1549279236.0,286046998.5,N
1549279255.8,286046998.7,N
1549279275.7,286046999.1,N
1549279295.5,286047001.1,N
1549279315.3,286046999.0,N
1549279335.2,286046999.1,N
1549279355.0,286046999.3,N
1549279355.9,286046999.3,N
1549279375.7,286046998.4,N
1549279395.6,286046999.3,N
1549279415.4,286046996.5,Y
1549279435.3,286046998.8,P
1549279455.1,286047000.9,P
1549279475.8,286046998.5,N
1549279495.7,286046997.2,Y
1549279515.5,286046999.0,P
1549279535.4,286046999.2,P
1549279555.2,286046997.4,P
1549279575.0,286046997.6,Y
1549279575.9,286046997.6,P
1549279595.8,286046997.2,P
1549279615.6,286046996.9,P
1549279635.5,286046996.7,Y
1549279655.3,286046998.1,P
1549279675.1,286047001.2,P
1549279695.9,286046998.1,N
1549279715.7,286046999.0,N
1549279735.5,286046999.6,N
1549279755.4,286046998.0,N
1549279775.2,286046993.3,Y
1549279795.1,286046995.6,P
1549279796.0,286046995.6,N
1549279815.8,286046993.5,P
1549279835.6,286046992.1,Y
1549279855.5,286046997.4,P
1549279875.3,286046997.3,P
1549279895.2,286046995.1,P
1549279915.9,286046995.4,Y
1549279935.7,286046999.7,P
1549279955.6,286047000.1,N
1549279975.4,286047002.8,N
1549279995.2,286047002.3,N
1549280015.1,286046999.9,N
1549280016.0,286046999.9,N
1549280035.8,286047000.3,N
1549280055.7,286047000.0,N
1549280075.5,286047002.6,N
1549280095.3,286047001.9,N
1549280115.2,286046999.7,N
1549280135.0,286046999.8,N
1549280135.9,286046999.8,N
1549280155.7,286047002.2,N
1549280175.6,286046999.9,N
1549280195.4,286046999.8,N
1549280215.3,286047000.6,N
1549280235.1,286047000.3,N
1549280236.0,286047000.3,N
1549280255.8,286047000.0,N
1549280275.7,286047000.6,N
1549280295.5,286046999.8,N
1549280315.4,286046999.8,N
1549280335.2,286046999.8,N
1549280355.0,286047002.3,N
1549280355.9,286047002.3,N
1549280375.8,286047002.7,N
1549280395.6,286047002.5,N
1549280415.4,286047002.1,N
1549280435.3,286047002.1,N
1549280455.1,286047002.1,N
1549280475.9,286047002.5,N
1549280495.7,286046999.9,N
1549280515.5,286047002.8,N
1549280535.4,286047001.0,N
1549280555.2,286047000.0,N
1549280575.0,286047002.3,N
1549280576.0,286047002.3,N
1549280595.8,286047003.8,Y
1549280615.6,286047003.3,P
1549280635.5,286047004.6,P
1549280655.3,286047005.0,P
1549280675.1,286047007.2,Y
1549280695.9,286047005.7,P
1549280715.7,286047006.1,P
1549280735.6,286047007.2,P
1549280755.4,286047004.9,Y
1549280775.2,286046998.5,P
1549280795.1,286046998.5,N
1549280796.0,286046998.5,N
1549280815.8,286046999.1,N
1549280835.7,286046996.9,N
1549280855.5,286046997.8,N
1549280875.3,286046995.8,N
1549280895.2,286046995.5,N
1549280915.9,286046994.7,N
1549280935.7,286046992.1,N
1549280955.6,286046994.1,N
1549280975.4,286046991.8,N
1549280995.3,286046991.8,N
1549281015.1,286046992.5,N
1549281016.0,286046992.5,N
1549281035.8,286046990.2,N
1549281055.7,286046990.3,N
1549281075.5,286046991.5,N
1549281095.3,286046991.3,N
1549281115.2,286046991.0,N
1549281135.0,286046991.6,N
1549281135.9,286046991.6,N
1549281155.8,286046991.5,N
1549281175.6,286046989.5,N
1549281195.4,286046988.8,N
1549281215.3,286046989.1,N
1549281235.1,286046989.4,N
1549281255.8,286046988.6,N
1549281275.7,286046989.8,N
1549281295.5,286046989.5,N
1549281315.4,286046988.7,Y
1549281335.2,286046996.8,P
1549281355.0,286046997.2,N
1549281355.9,286046997.2,N
1549281375.8,286046999.1,N
1549281395.6,286046998.8,N
1549281415.5,286046998.4,N
1549281435.3,286047000.0,N
1549281455.1,286047002.8,N
1549281475.9,286047002.5,N
1549281495.7,286047002.2,N
1549281515.5,286047001.7,N
1549281535.4,286047002.4,N
1549281555.2,286047002.4,N
1549281575.1,286047002.6,N
1549281576.0,286047002.6,N
1549281595.8,286047002.3,N
